Columbia Falls, MT

10:26 AM MDT on July 23, 2016 (GMT -0600)
Glacier Park International

Weather History for KGPI - November, 2013

Change the Weather History Date:

Friday, November 15, 2013

  Actual Average Record
Temperature  
Mean Temperature 35 °F 32 °F  
Max Temperature 41 °F 40 °F 56 °F (2001)
Min Temperature 29 °F 25 °F -22 °F (1959)
Degree Days  
Heating Degree Days 30 33  
Month to date heating degree days 449 460  
Since 1 July heating degree days 1515 1668  
Cooling Degree Days 0 0  
Month to date cooling degree days 0 0  
Year to date cooling degree days 264 147  
Moisture  
Dew Point 29 °F    
Average Humidity 75    
Maximum Humidity 96    
Minimum Humidity 54    
Precipitation  
Precipitation 0.01 in 0.05 in 0.57 in (1959)
Month to date precipitation 1.96 0.70  
Year to date precipitation 15.32 14.70  
Snow  
Snow T in - - ()
Month to date snowfall 7.8  
Year to date snowfall 17.9  
Since 1 July snowfall 7.8  
Snow Depth 0.00 in    
Sea Level Pressure  
Sea Level Pressure 29.55 in    
Wind  
Wind Speed 9 mph (South)    
Max Wind Speed 21 mph    
Max Gust Speed 29 mph    
Visibility 10 miles    
Events Snow    
T = Trace of Precipitation, MM = Missing Value Source: NWS Daily Summary

Daily Weather History Graph

Daily Weather History Graph

Search for Another Location

Airport or City:

Trip Planner

Search our weather history database for the weather conditions in past years. The results will help you decide how hot, cold, wet, or windy it might be!

Date:

Astronomy

Nov. 15, 2013 Rise Set
Actual Time 7:44 AM MST 4:57 PM MST
Civil Twilight 7:10 AM MST 5:32 PM MST
Nautical Twilight 6:32 AM MST 6:10 PM MST
Astronomical Twilight 5:55 AM MST 6:46 PM MST
Moon 4:03 PM MST (11/15) 5:37 AM MST (11/15)
Length of Visible Light 10h 21m
Length of Day
9h 13m
Waxing Gibbous, 97% of the Moon is Illuminated
Nov 15
Waxing Gibbous
Nov 17
Full
Nov 25
Last Quarter
Dec 2
New
Dec 9
First Quarter

Hourly Weather History & Observations

Time (MST) Temp. Windchill Dew Point Humidity Pressure Visibility Wind Dir Wind Speed Gust Speed Precip Events Conditions
12:55 AM 30.9 °F 26.2 °F 25.0 °F 79% 29.81 in 10.0 mi South 4.6 mph - N/A   Partly Cloudy
1:55 AM 32.0 °F 28.7 °F 26.1 °F 79% 29.79 in 10.0 mi SSE 3.5 mph - N/A   Scattered Clouds
2:55 AM 30.0 °F 25.2 °F 27.0 °F 88% 29.79 in 10.0 mi South 4.6 mph - N/A   Overcast
3:55 AM 33.1 °F 30.0 °F 27.0 °F 78% 29.77 in 10.0 mi South 3.5 mph - N/A   Overcast
4:55 AM 34.0 °F 28.8 °F 28.0 °F 79% 29.75 in 10.0 mi South 5.8 mph - N/A   Overcast
5:55 AM 34.0 °F 28.8 °F 28.0 °F 79% 29.75 in 10.0 mi South 5.8 mph - N/A   Overcast
6:55 AM 35.1 °F 31.0 °F 28.9 °F 78% 29.74 in 10.0 mi South 4.6 mph - N/A   Overcast
7:55 AM 36.0 °F 31.1 °F 28.9 °F 76% 29.73 in 10.0 mi South 5.8 mph - N/A   Overcast
8:55 AM 37.0 °F 31.6 °F 30.0 °F 76% 29.71 in 10.0 mi SSE 6.9 mph - N/A   Overcast
9:55 AM 39.9 °F 33.4 °F 27.0 °F 60% 29.69 in 10.0 mi SSW 10.4 mph - N/A   Overcast
10:55 AM 41.0 °F 33.5 °F 26.1 °F 55% 29.66 in 10.0 mi SSW 13.8 mph - N/A   Overcast
11:55 AM 41.0 °F 32.5 °F 26.1 °F 55% 29.62 in 10.0 mi SSW 17.3 mph - N/A   Overcast
12:55 PM 39.9 °F 32.1 °F 25.0 °F 55% 29.60 in 10.0 mi SW 13.8 mph - N/A   Overcast
1:55 PM 37.9 °F 30.5 °F 27.0 °F 65% 29.60 in 10.0 mi SSW 11.5 mph - N/A   Overcast
2:55 PM 37.0 °F 29.3 °F 28.9 °F 73% 29.57 in 10.0 mi South 11.5 mph - N/A   Overcast
3:55 PM 36.0 °F 29.0 °F 30.0 °F 79% 29.55 in 10.0 mi South 9.2 mph - N/A   Overcast
4:55 PM 35.1 °F 27.4 °F 30.0 °F 82% 29.53 in 10.0 mi South 10.4 mph - N/A   Overcast
5:18 PM 35.6 °F 28.0 °F 30.2 °F 81% 29.47 in 6.0 mi SSE 10.4 mph - 0.00 in Snow Light Snow
5:55 PM 34.0 °F 26.0 °F 32.0 °F 92% 29.52 in 9.0 mi South 10.4 mph - 0.00 in Snow Light Snow
6:18 PM 33.8 °F 24.8 °F 32.0 °F 93% 29.45 in 8.0 mi South 12.7 mph - 0.01 in Snow Light Snow
6:30 PM 33.8 °F 24.3 °F 32.0 °F 93% 29.45 in 9.0 mi SSE 13.8 mph - 0.01 in   Overcast
6:55 PM 34.0 °F 24.6 °F 32.0 °F 92% 29.49 in 10.0 mi SSE 13.8 mph - 0.01 in Snow Light Snow
7:15 PM 33.8 °F 25.3 °F 32.0 °F 93% 29.43 in 9.0 mi SSE 11.5 mph - 0.00 in Snow Light Snow
7:32 PM 33.8 °F 25.8 °F - N/A% 29.42 in 10.0 mi South 10.4 mph - 0.00 in   Overcast
7:55 PM 34.0 °F 26.6 °F 32.0 °F 92% 29.46 in 10.0 mi South 9.2 mph - 0.00 in   Overcast
8:55 PM 34.0 °F 26.6 °F 30.9 °F 89% 29.44 in 9.0 mi South 9.2 mph - 0.00 in Snow Light Snow
9:14 PM 33.8 °F 25.8 °F 30.2 °F 87% 29.38 in 10.0 mi South 10.4 mph - 0.00 in   Overcast
9:55 PM 34.0 °F 26.6 °F 30.9 °F 89% 29.42 in 10.0 mi South 9.2 mph - 0.00 in   Overcast
10:28 PM 35.6 °F 28.6 °F 30.2 °F 81% 29.35 in 10.0 mi South 9.2 mph - N/A   Overcast
10:46 PM 35.6 °F 28.6 °F 32.0 °F 87% 29.34 in 10.0 mi South 9.2 mph - N/A   Overcast
10:55 PM 35.1 °F 27.9 °F 30.9 °F 85% 29.39 in 10.0 mi South 9.2 mph - N/A   Overcast
11:06 PM 35.6 °F 27.5 °F 30.2 °F 81% 29.33 in 10.0 mi South 11.5 mph - N/A   Overcast
11:29 PM 35.6 °F 27.1 °F 32.0 °F 87% 29.32 in 10.0 mi South 12.7 mph - 0.00 in   Overcast
11:55 PM 34.0 °F 25.0 °F 32.0 °F 92% 29.36 in 10.0 mi South 12.7 mph - 0.00 in   Overcast